Overview Statistics Trail Chart Weather Telemetry Raw packets
 

This is the latest recevied weather packets stored in our database for station/object N5DGC. If no packets are shown the sender has not sent any weather packets the latest 10 day(s).

<< 92 93 94 95 96 97 98 >>
Time Temp. Humidity Pressure Rain* Wind** Luminosity Snow
1787923357 17.78° C 55% 1245.2 hPa 0 mm - 38 W/m² -
1787923052 17.78° C 55% 1245.2 hPa 0 mm - 34 W/m² -
1787922747 17.22° C 56% 1244.9 hPa 0 mm - 27 W/m² -
1787922446 16.67° C 58% 1245 hPa 0 mm - 22 W/m² -
1787922144 16.67° C 59% 1245 hPa 0 mm - 17 W/m² -
1787921843 16.67° C 60% 1245 hPa 0 mm - 14 W/m² -
1787921538 16.67° C 60% 1244.8 hPa 0 mm - 11 W/m² -
1787921232 16.11° C 61% 1244.8 hPa 0 mm - 8 W/m² -
1787920929 16.11° C 61% 1244.6 hPa 0 mm - 5 W/m² -
1787920623 16.11° C 64% 1244.3 hPa 0 mm - 3 W/m² -
1787920317 16.11° C 65% 1244.4 hPa 0 mm - 2 W/m² -
1787920015 16.11° C 66% 1244.2 hPa 0 mm - 1 W/m² -
1787919709 16.11° C 65% 1244.2 hPa 0 mm - 0 W/m² -
1787919409 16.11° C 66% 1244.3 hPa 0 mm - 0 W/m² -
1787919105 16.11° C 67% 1244.2 hPa 0 mm - 0 W/m² -
1787918799 16.11° C 66% 1244.2 hPa 0 mm - 0 W/m² -
1787918499 16.67° C 64% 1244.2 hPa 0 mm - 0 W/m² -
1787918198 17.22° C 62% 1244.3 hPa 0 mm - 0 W/m² -
1787917892 17.22° C 59% 1244.1 hPa 0 mm - 0 W/m² -
1787917588 17.78° C 59% 1244.1 hPa 0 mm - 0 W/m² -
1787917285 17.78° C 57% 1243.9 hPa 0 mm - 0 W/m² -
1787916984 17.78° C 55% 1243.9 hPa 0 mm - 0 W/m² -
1787916678 17.78° C 55% 1244.2 hPa 0 mm - 0 W/m² -
1787916373 17.78° C 55% 1244.1 hPa 0 mm - 0 W/m² -
1787916068 17.78° C 55% 1244.3 hPa 0 mm - 0 W/m² -

* Rain latest hour (hover to see other rain measurements)
** Current wind speed in m/s (hover to see current wind gust speed)